Time,TemperatureF,DewpointF,PressureIn,WindDirection,WindDirectionDegrees,WindSpeedMPH,WindSpeedGustMPH,Humidity,HourlyPrecipIn,Conditions,Clouds,dailyrainin,SoftwareType,DateUTC
2013-03-03 00:00:00,24.6,20.7,29.73,South,188,1.0,1.0,85,0.00,,,0.00,Wunderground v.1.13,2013-03-03 05:00:00,
2013-03-03 00:02:00,24.5,20.6,29.73,South,188,0.0,1.0,85,0.00,,,0.00,Wunderground v.1.13,2013-03-03 05:02:00,
2013-03-03 00:04:00,24.5,20.6,29.73,South,187,0.0,1.0,85,0.00,,,0.00,Wunderground v.1.13,2013-03-03 05:04:00,
2013-03-03 00:06:00,24.5,20.6,29.73,South,187,0.0,1.0,85,0.00,,,0.00,Wunderground v.1.13,2013-03-03 05:06:00,
2013-03-03 00:11:00,24.5,20.9,29.73,South,188,1.0,1.0,86,0.00,,,0.00,Wunderground v.1.13,2013-03-03 05:11:00,
2013-03-03 00:16:00,24.3,20.7,29.73,NW,315,1.0,1.0,86,0.00,,,0.00,Wunderground v.1.13,2013-03-03 05:16:00,
2013-03-03 00:22:00,24.3,20.7,29.73,NE,40,0.0,1.0,86,0.00,,,0.01,Wunderground v.1.13,2013-03-03 05:22:00,
2013-03-03 00:27:00,24.2,20.6,29.73,North,355,0.0,1.0,86,0.00,,,0.01,Wunderground v.1.13,2013-03-03 05:27:00,
2013-03-03 00:33:00,24.1,20.5,29.73,ENE,57,0.0,1.0,86,0.00,,,0.01,Wunderground v.1.13,2013-03-03 05:33:00,
2013-03-03 00:38:00,23.9,20.3,29.73,ENE,58,0.0,2.0,86,0.00,,,0.01,Wunderground v.1.13,2013-03-03 05:38:00,
2013-03-03 00:44:00,23.9,20.3,29.73,ENE,76,0.0,2.0,86,0.00,,,0.01,Wunderground v.1.13,2013-03-03 05:44:00,
2013-03-03 00:49:00,23.8,20.2,29.73,East,93,1.0,1.0,86,0.00,,,0.01,Wunderground v.1.13,2013-03-03 05:49:00,
2013-03-03 00:55:00,23.8,20.5,29.73,North,355,0.0,3.0,87,0.00,,,0.01,Wunderground v.1.13,2013-03-03 05:55:00,
2013-03-03 01:00:00,23.8,20.2,29.73,East,86,1.0,1.0,86,0.00,,,0.01,Wunderground v.1.13,2013-03-03 06:00:00,
2013-03-03 01:06:00,23.8,20.2,29.73,NE,49,1.0,1.0,86,0.00,,,0.01,Wunderground v.1.13,2013-03-03 06:06:00,
2013-03-03 01:11:00,23.8,20.2,29.73,North,10,1.0,1.0,86,0.00,,,0.01,Wunderground v.1.13,2013-03-03 06:11:00,
2013-03-03 01:16:00,23.8,20.2,29.73,NE,39,2.0,2.0,86,0.00,,,0.01,Wunderground v.1.13,2013-03-03 06:16:00,
2013-03-03 01:22:00,23.8,20.2,29.73,NE,45,1.0,2.0,86,0.00,,,0.01,Wunderground v.1.13,2013-03-03 06:22:00,
2013-03-03 01:27:00,23.7,20.1,29.73,NNE,22,2.0,2.0,86,0.00,,,0.01,Wunderground v.1.13,2013-03-03 06:27:00,
2013-03-03 01:32:00,23.8,20.2,29.73,NNE,32,0.0,2.0,86,0.00,,,0.01,Wunderground v.1.13,2013-03-03 06:32:00,
2013-03-03 01:37:00,23.8,20.2,29.73,North,360,0.0,1.0,86,0.00,,,0.01,Wunderground v.1.13,2013-03-03 06:37:00,
2013-03-03 01:43:00,23.8,20.2,29.73,NNE,13,2.0,2.0,86,0.00,,,0.01,Wunderground v.1.13,2013-03-03 06:43:00,
2013-03-03 01:48:00,23.8,20.2,29.72,North,9,1.0,2.0,86,0.00,,,0.01,Wunderground v.1.13,2013-03-03 06:48:00,
2013-03-03 01:53:00,23.8,20.2,29.72,North,5,0.0,1.0,86,0.00,,,0.01,Wunderground v.1.13,2013-03-03 06:53:00,
2013-03-03 01:58:00,23.8,20.2,29.72,NE,52,0.0,1.0,86,0.00,,,0.01,Wunderground v.1.13,2013-03-03 06:58:00,
2013-03-03 02:03:00,23.9,20.3,29.72,SE,141,0.0,2.0,86,0.00,,,0.01,Wunderground v.1.13,2013-03-03 07:03:00,
2013-03-03 02:08:00,23.9,20.3,29.72,ENE,59,2.0,2.0,86,0.00,,,0.01,Wunderground v.1.13,2013-03-03 07:08:00,
2013-03-03 02:13:00,23.9,20.3,29.72,NNE,23,0.0,0.0,86,0.00,,,0.01,Wunderground v.1.13,2013-03-03 07:13:00,
2013-03-03 02:18:00,23.9,20.3,29.71,NNE,32,0.0,2.0,86,0.00,,,0.01,Wunderground v.1.13,2013-03-03 07:18:00,
2013-03-03 02:23:00,23.8,20.2,29.71,NNE,26,0.0,2.0,86,0.00,,,0.01,Wunderground v.1.13,2013-03-03 07:23:00,
2013-03-03 02:28:00,23.8,20.2,29.71,NNE,17,0.0,2.0,86,0.00,,,0.01,Wunderground v.1.13,2013-03-03 07:28:00,
2013-03-03 02:33:00,23.8,20.2,29.71,WSW,239,0.0,2.0,86,0.00,,,0.01,Wunderground v.1.13,2013-03-03 07:33:00,
2013-03-03 02:38:00,23.8,20.2,29.71,NE,44,0.0,2.0,86,0.00,,,0.01,Wunderground v.1.13,2013-03-03 07:38:00,
2013-03-03 02:43:00,23.7,20.1,29.71,NE,44,0.0,2.0,86,0.00,,,0.01,Wunderground v.1.13,2013-03-03 07:43:00,
2013-03-03 02:48:00,23.7,19.9,29.71,NE,41,1.0,2.0,85,0.00,,,0.01,Wunderground v.1.13,2013-03-03 07:48:00,
2013-03-03 02:53:00,23.6,19.8,29.71,NE,41,0.0,3.0,85,0.00,,,0.01,Wunderground v.1.13,2013-03-03 07:53:00,
2013-03-03 02:58:00,23.6,19.8,29.71,ENE,65,1.0,4.0,85,0.00,,,0.01,Wunderground v.1.13,2013-03-03 07:58:00,
2013-03-03 03:03:00,23.6,19.8,29.71,ENE,65,0.0,1.0,85,0.00,,,0.01,Wunderground v.1.13,2013-03-03 08:03:00,
2013-03-03 03:08:00,23.6,19.8,29.71,NNE,18,0.0,5.0,85,0.00,,,0.01,Wunderground v.1.13,2013-03-03 08:08:00,
2013-03-03 03:13:00,23.6,19.8,29.71,ENE,61,1.0,1.0,85,0.00,,,0.01,Wunderground v.1.13,2013-03-03 08:13:00,
2013-03-03 03:19:00,23.6,19.8,29.71,East,80,0.0,3.0,85,0.00,,,0.01,Wunderground v.1.13,2013-03-03 08:19:00,
2013-03-03 03:24:00,23.6,19.8,29.71,NNW,337,0.0,2.0,85,0.00,,,0.01,Wunderground v.1.13,2013-03-03 08:24:00,
2013-03-03 03:29:00,23.7,19.9,29.71,NE,42,1.0,3.0,85,0.00,,,0.01,Wunderground v.1.13,2013-03-03 08:29:00,
2013-03-03 03:34:00,23.7,19.9,29.71,WSW,239,2.0,2.0,85,0.00,,,0.01,Wunderground v.1.13,2013-03-03 08:34:00,
2013-03-03 03:39:00,23.7,21.7,29.71,NNE,14,0.0,2.0,92,0.00,,,0.01,Wunderground v.1.13,2013-03-03 08:39:00,
2013-03-03 03:44:00,23.8,19.9,29.71,NNE,12,0.0,2.0,85,0.00,,,0.01,Wunderground v.1.13,2013-03-03 08:44:00,
2013-03-03 03:49:00,23.8,19.9,29.71,NNE,26,0.0,2.0,85,0.00,,,0.01,Wunderground v.1.13,2013-03-03 08:49:00,
2013-03-03 03:54:00,23.8,19.9,29.71,North,11,0.0,2.0,85,0.00,,,0.01,Wunderground v.1.13,2013-03-03 08:54:00,
2013-03-03 03:59:00,23.8,19.9,29.70,NNE,22,1.0,1.0,85,0.00,,,0.01,Wunderground v.1.13,2013-03-03 08:59:00,
2013-03-03 04:04:00,23.8,19.9,29.70,North,355,0.0,3.0,85,0.00,,,0.01,Wunderground v.1.13,2013-03-03 09:04:00,
2013-03-03 04:09:00,23.8,19.9,29.71,NE,36,0.0,3.0,85,0.00,,,0.01,Wunderground v.1.13,2013-03-03 09:09:00,
2013-03-03 04:14:00,23.8,19.9,29.70,NE,36,1.0,1.0,85,0.00,,,0.01,Wunderground v.1.13,2013-03-03 09:14:00,
2013-03-03 04:19:00,23.8,19.9,29.71,WNW,283,0.0,2.0,85,0.00,,,0.01,Wunderground v.1.13,2013-03-03 09:19:00,
2013-03-03 04:24:00,23.8,19.9,29.71,NE,39,2.0,3.0,85,0.00,,,0.01,Wunderground v.1.13,2013-03-03 09:24:00,
2013-03-03 04:29:00,23.8,19.9,29.71,NE,38,1.0,2.0,85,0.00,,,0.01,Wunderground v.1.13,2013-03-03 09:29:00,
2013-03-03 04:34:00,23.8,19.9,29.71,NE,40,0.0,2.0,85,0.00,,,0.01,Wunderground v.1.13,2013-03-03 09:34:00,
2013-03-03 04:39:00,23.8,19.9,29.71,NE,39,0.0,2.0,85,0.00,,,0.01,Wunderground v.1.13,2013-03-03 09:39:00,
2013-03-03 04:44:00,23.8,19.9,29.71,NW,318,0.0,4.0,85,0.00,,,0.01,Wunderground v.1.13,2013-03-03 09:44:00,
2013-03-03 04:49:00,23.8,19.9,29.71,NW,317,0.0,2.0,85,0.00,,,0.01,Wunderground v.1.13,2013-03-03 09:49:00,
2013-03-03 04:54:00,23.8,19.9,29.71,North,5,0.0,2.0,85,0.00,,,0.01,Wunderground v.1.13,2013-03-03 09:54:00,
2013-03-03 04:59:00,23.8,19.9,29.71,North,5,0.0,2.0,85,0.00,,,0.01,Wunderground v.1.13,2013-03-03 09:59:00,
2013-03-03 05:04:00,23.7,19.9,29.71,NE,41,2.0,2.0,85,0.00,,,0.01,Wunderground v.1.13,2013-03-03 10:04:00,
2013-03-03 05:10:00,23.7,19.9,29.71,NE,53,0.0,1.0,85,0.00,,,0.01,Wunderground v.1.13,2013-03-03 10:10:00,
2013-03-03 05:15:00,23.6,19.8,29.71,NE,52,0.0,1.0,85,0.00,,,0.01,Wunderground v.1.13,2013-03-03 10:15:00,
2013-03-03 05:20:00,23.6,20.0,29.71,NW,311,1.0,1.0,86,0.00,,,0.01,Wunderground v.1.13,2013-03-03 10:20:00,
2013-03-03 05:25:00,23.6,19.8,29.71,NE,51,0.0,1.0,85,0.00,,,0.01,Wunderground v.1.13,2013-03-03 10:25:00,
2013-03-03 05:30:00,23.6,19.8,29.71,SSE,152,0.0,1.0,85,0.00,,,0.01,Wunderground v.1.13,2013-03-03 10:30:00,
2013-03-03 05:35:00,23.5,19.7,29.71,North,349,0.0,2.0,85,0.00,,,0.01,Wunderground v.1.13,2013-03-03 10:35:00,
2013-03-03 05:40:00,23.6,19.8,29.71,NW,323,1.0,1.0,85,0.00,,,0.01,Wunderground v.1.13,2013-03-03 10:40:00,
2013-03-03 05:45:00,23.6,19.8,29.71,NNE,22,0.0,1.0,85,0.00,,,0.01,Wunderground v.1.13,2013-03-03 10:45:00,
2013-03-03 05:50:00,23.6,19.8,29.71,NNE,21,0.0,1.0,85,0.00,,,0.01,Wunderground v.1.13,2013-03-03 10:50:00,
2013-03-03 05:56:00,23.6,19.8,29.71,NE,53,2.0,2.0,85,0.00,,,0.01,Wunderground v.1.13,2013-03-03 10:56:00,
2013-03-03 06:01:00,23.6,19.8,29.71,NNW,332,0.0,1.0,85,0.00,,,0.02,Wunderground v.1.13,2013-03-03 11:01:00,
2013-03-03 06:06:00,23.7,19.9,29.71,NNE,29,0.0,0.0,85,0.00,,,0.02,Wunderground v.1.13,2013-03-03 11:06:00,
2013-03-03 06:11:00,23.7,19.9,29.72,NNE,29,0.0,1.0,85,0.00,,,0.02,Wunderground v.1.13,2013-03-03 11:11:00,
2013-03-03 06:16:00,23.7,19.9,29.72,NNE,29,0.0,1.0,85,0.00,,,0.02,Wunderground v.1.13,2013-03-03 11:16:00,
2013-03-03 06:21:00,23.7,19.9,29.72,North,349,2.0,2.0,85,0.00,,,0.02,Wunderground v.1.13,2013-03-03 11:21:00,
2013-03-03 06:26:00,23.6,19.8,29.72,North,350,2.0,2.0,85,0.00,,,0.02,Wunderground v.1.13,2013-03-03 11:26:00,
2013-03-03 06:31:00,23.6,19.8,29.72,North,5,0.0,2.0,85,0.00,,,0.02,Wunderground v.1.13,2013-03-03 11:31:00,
2013-03-03 06:36:00,23.5,19.4,29.72,ENE,63,4.0,4.0,84,0.00,,,0.02,Wunderground v.1.13,2013-03-03 11:36:00,
2013-03-03 06:41:00,23.5,19.4,29.72,North,351,1.0,1.0,84,0.00,,,0.02,Wunderground v.1.13,2013-03-03 11:41:00,
2013-03-03 06:46:00,23.5,19.7,29.72,NNE,23,0.0,4.0,85,0.00,,,0.02,Wunderground v.1.13,2013-03-03 11:46:00,
2013-03-03 06:51:00,23.5,19.7,29.72,North,9,0.0,3.0,85,0.00,,,0.02,Wunderground v.1.13,2013-03-03 11:51:00,
2013-03-03 06:57:00,23.6,19.8,29.72,NE,36,1.0,1.0,85,0.00,,,0.02,Wunderground v.1.13,2013-03-03 11:57:00,
2013-03-03 07:02:00,23.6,19.8,29.72,NNE,20,0.0,2.0,85,0.00,,,0.02,Wunderground v.1.13,2013-03-03 12:02:00,
2013-03-03 07:08:00,23.6,19.8,29.72,NNE,22,1.0,2.0,85,0.00,,,0.02,Wunderground v.1.13,2013-03-03 12:08:00,
2013-03-03 07:13:00,23.6,19.8,29.72,North,350,0.0,2.0,85,0.00,,,0.02,Wunderground v.1.13,2013-03-03 12:13:00,
2013-03-03 07:18:00,23.7,19.6,29.72,NW,324,0.0,4.0,84,0.00,,,0.02,Wunderground v.1.13,2013-03-03 12:18:00,
2013-03-03 07:23:00,23.8,19.7,29.72,NE,56,2.0,4.0,84,0.00,,,0.02,Wunderground v.1.13,2013-03-03 12:23:00,
2013-03-03 07:28:00,23.9,19.8,29.72,ENE,67,2.0,3.0,84,0.00,,,0.02,Wunderground v.1.13,2013-03-03 12:28:00,
2013-03-03 07:33:00,24.1,19.7,29.72,NE,46,0.0,1.0,83,0.00,,,0.02,Wunderground v.1.13,2013-03-03 12:33:00,
2013-03-03 07:38:00,24.3,19.9,29.72,NE,49,0.0,2.0,83,0.00,,,0.02,Wunderground v.1.13,2013-03-03 12:38:00,
2013-03-03 07:43:00,24.4,19.7,29.72,West,269,4.0,5.0,82,0.00,,,0.02,Wunderground v.1.13,2013-03-03 12:43:00,
2013-03-03 07:48:00,24.5,19.8,29.72,SSE,149,2.0,3.0,82,0.00,,,0.02,Wunderground v.1.13,2013-03-03 12:48:00,
2013-03-03 07:53:00,24.5,19.8,29.72,ENE,71,3.0,3.0,82,0.00,,,0.02,Wunderground v.1.13,2013-03-03 12:53:00,
2013-03-03 07:59:00,24.6,19.9,29.72,NNW,333,3.0,3.0,82,0.00,,,0.02,Wunderground v.1.13,2013-03-03 12:59:00,
2013-03-03 08:04:00,24.7,19.7,29.72,NNE,17,1.0,4.0,81,0.00,,,0.02,Wunderground v.1.13,2013-03-03 13:04:00,
2013-03-03 08:09:00,24.9,19.9,29.72,NNE,17,0.0,4.0,81,0.00,,,0.02,Wunderground v.1.13,2013-03-03 13:09:00,
2013-03-03 08:14:00,25.0,20.0,29.72,NW,315,0.0,3.0,81,0.00,,,0.02,Wunderground v.1.13,2013-03-03 13:14:00,
2013-03-03 08:19:00,25.1,20.1,29.72,NNE,30,2.0,5.0,81,0.00,,,0.02,Wunderground v.1.13,2013-03-03 13:19:00,
2013-03-03 08:24:00,25.1,20.1,29.72,SE,142,1.0,5.0,81,0.00,,,0.02,Wunderground v.1.13,2013-03-03 13:24:00,
2013-03-03 08:29:00,25.4,20.7,29.72,SW,225,0.0,2.0,82,0.00,,,0.02,Wunderground v.1.13,2013-03-03 13:29:00,
2013-03-03 08:34:00,25.8,20.8,29.72,NNE,25,0.0,2.0,81,0.00,,,0.02,Wunderground v.1.13,2013-03-03 13:34:00,
2013-03-03 08:39:00,26.0,20.7,29.72,ENE,57,3.0,5.0,80,0.00,,,0.02,Wunderground v.1.13,2013-03-03 13:39:00,
2013-03-03 08:45:00,26.1,20.8,29.72,NNE,15,3.0,3.0,80,0.00,,,0.02,Wunderground v.1.13,2013-03-03 13:45:00,
2013-03-03 08:50:00,26.4,21.1,29.71,North,349,1.0,5.0,80,0.00,,,0.02,Wunderground v.1.13,2013-03-03 13:50:00,
2013-03-03 08:56:00,26.6,21.0,29.71,WSW,240,0.0,2.0,79,0.00,,,0.02,Wunderground v.1.13,2013-03-03 13:56:00,
2013-03-03 09:00:00,26.7,21.1,29.71,North,355,0.0,1.0,79,0.00,,,0.02,Wunderground v.1.13,2013-03-03 14:00:00,
2013-03-03 09:06:00,26.7,21.1,29.71,North,355,1.0,2.0,79,0.00,,,0.02,Wunderground v.1.13,2013-03-03 14:06:00,
2013-03-03 09:11:00,26.6,20.7,29.71,WNW,302,3.0,4.0,78,0.00,,,0.02,Wunderground v.1.13,2013-03-03 14:11:00,
2013-03-03 09:16:00,26.6,21.0,29.71,NNE,30,1.0,3.0,79,0.00,,,0.02,Wunderground v.1.13,2013-03-03 14:16:00,
2013-03-03 09:21:00,26.5,20.9,29.71,NNW,340,0.0,2.0,79,0.00,,,0.02,Wunderground v.1.13,2013-03-03 14:21:00,
2013-03-03 09:26:00,26.6,21.0,29.71,NE,40,2.0,4.0,79,0.00,,,0.02,Wunderground v.1.13,2013-03-03 14:26:00,
2013-03-03 09:31:00,26.8,21.5,29.71,NNW,336,0.0,3.0,80,0.00,,,0.02,Wunderground v.1.13,2013-03-03 14:31:00,
2013-03-03 09:36:00,27.0,21.4,29.71,North,9,0.0,2.0,79,0.00,,,0.02,Wunderground v.1.13,2013-03-03 14:36:00,
2013-03-03 09:41:00,27.0,21.7,29.71,North,5,2.0,6.0,80,0.00,,,0.02,Wunderground v.1.13,2013-03-03 14:41:00,
2013-03-03 09:46:00,27.1,21.7,29.71,NNW,337,2.0,3.0,80,0.00,,,0.02,Wunderground v.1.13,2013-03-03 14:46:00,
2013-03-03 09:51:00,27.2,21.5,29.70,WNW,291,3.0,5.0,79,0.00,,,0.02,Wunderground v.1.13,2013-03-03 14:51:00,
2013-03-03 09:56:00,27.2,21.5,29.70,NW,320,3.0,3.0,79,0.00,,,0.02,Wunderground v.1.13,2013-03-03 14:56:00,
2013-03-03 10:01:00,27.5,21.8,29.70,WSW,258,0.0,5.0,79,0.00,,,0.02,Wunderground v.1.13,2013-03-03 15:01:00,
2013-03-03 10:06:00,27.8,22.1,29.70,SW,217,0.0,2.0,79,0.00,,,0.02,Wunderground v.1.13,2013-03-03 15:06:00,
2013-03-03 10:11:00,28.3,22.6,29.70,WSW,247,2.0,4.0,79,0.00,,,0.02,Wunderground v.1.13,2013-03-03 15:11:00,
2013-03-03 10:16:00,28.4,22.4,29.70,NNE,18,2.0,4.0,78,0.00,,,0.02,Wunderground v.1.13,2013-03-03 15:16:00,
2013-03-03 10:21:00,28.7,22.7,29.70,WNW,290,2.0,4.0,78,0.00,,,0.02,Wunderground v.1.13,2013-03-03 15:21:00,
2013-03-03 10:27:00,28.9,23.2,29.70,WNW,294,2.0,3.0,79,0.00,,,0.02,Wunderground v.1.13,2013-03-03 15:27:00,
2013-03-03 10:32:00,29.0,23.0,29.69,SW,217,3.0,4.0,78,0.00,,,0.02,Wunderground v.1.13,2013-03-03 15:32:00,
2013-03-03 10:37:00,28.9,23.2,29.69,West,268,4.0,6.0,79,0.00,,,0.02,Wunderground v.1.13,2013-03-03 15:37:00,
2013-03-03 10:42:00,29.2,23.5,29.69,West,272,0.0,2.0,79,0.00,,,0.02,Wunderground v.1.13,2013-03-03 15:42:00,
2013-03-03 10:47:00,29.4,23.4,29.69,North,5,1.0,2.0,78,0.00,,,0.02,Wunderground v.1.13,2013-03-03 15:47:00,
2013-03-03 10:52:00,29.6,23.6,29.69,NW,321,5.0,5.0,78,0.00,,,0.02,Wunderground v.1.13,2013-03-03 15:52:00,
2013-03-03 10:57:00,29.5,23.5,29.69,NE,49,1.0,4.0,78,0.00,,,0.02,Wunderground v.1.13,2013-03-03 15:57:00,
2013-03-03 11:02:00,29.6,23.6,29.69,SSE,155,2.0,3.0,78,0.00,,,0.02,Wunderground v.1.13,2013-03-03 16:02:00,
2013-03-03 11:07:00,29.6,23.6,29.69,ENE,72,0.0,4.0,78,0.00,,,0.02,Wunderground v.1.13,2013-03-03 16:07:00,
2013-03-03 11:12:00,29.7,23.4,29.69,NNE,29,3.0,12.0,77,0.00,,,0.02,Wunderground v.1.13,2013-03-03 16:12:00,
2013-03-03 11:17:00,30.0,23.7,29.69,NNW,348,2.0,6.0,77,0.00,,,0.02,Wunderground v.1.13,2013-03-03 16:17:00,
2013-03-03 11:22:00,30.3,24.0,29.69,NE,50,2.0,9.0,77,0.00,,,0.02,Wunderground v.1.13,2013-03-03 16:22:00,
2013-03-03 11:27:00,30.7,24.3,29.69,NNE,19,7.0,7.0,77,0.00,,,0.02,Wunderground v.1.13,2013-03-03 16:27:00,
2013-03-03 11:32:00,30.8,24.1,29.69,NE,42,4.0,5.0,76,0.00,,,0.02,Wunderground v.1.13,2013-03-03 16:32:00,
2013-03-03 11:37:00,31.1,24.4,29.69,NNW,343,2.0,2.0,76,0.00,,,0.02,Wunderground v.1.13,2013-03-03 16:37:00,
2013-03-03 11:42:00,31.2,23.9,29.69,ENE,63,1.0,7.0,74,0.00,,,0.02,Wunderground v.1.13,2013-03-03 16:42:00,
2013-03-03 11:47:00,31.2,24.2,29.69,NE,39,2.0,5.0,75,0.00,,,0.02,Wunderground v.1.13,2013-03-03 16:47:00,
2013-03-03 11:52:00,31.2,24.2,29.69,NW,309,0.0,2.0,75,0.00,,,0.02,Wunderground v.1.13,2013-03-03 16:52:00,
2013-03-03 11:57:00,31.4,24.1,29.69,NNE,14,2.0,3.0,74,0.00,,,0.02,Wunderground v.1.13,2013-03-03 16:57:00,
2013-03-03 12:02:00,31.2,24.2,29.68,ESE,115,3.0,6.0,75,0.00,,,0.02,Wunderground v.1.13,2013-03-03 17:02:00,
2013-03-03 12:07:00,31.2,24.2,29.69,WSW,240,2.0,3.0,75,0.00,,,0.02,Wunderground v.1.13,2013-03-03 17:07:00,
2013-03-03 12:12:00,31.1,24.1,29.69,WSW,255,2.0,3.0,75,0.00,,,0.02,Wunderground v.1.13,2013-03-03 17:12:00,
2013-03-03 12:17:00,31.2,24.5,29.68,WSW,241,4.0,5.0,76,0.00,,,0.02,Wunderground v.1.13,2013-03-03 17:17:00,
2013-03-03 12:22:00,31.3,24.3,29.68,NNW,327,0.0,9.0,75,0.00,,,0.02,Wunderground v.1.13,2013-03-03 17:22:00,
2013-03-03 12:27:00,31.3,24.3,29.68,NW,315,5.0,9.0,75,0.00,,,0.02,Wunderground v.1.13,2013-03-03 17:27:00,
2013-03-03 12:32:00,31.3,24.3,29.68,SSW,198,1.0,6.0,75,0.00,,,0.02,Wunderground v.1.13,2013-03-03 17:32:00,
2013-03-03 12:37:00,31.3,24.3,29.68,SSW,209,4.0,7.0,75,0.00,,,0.02,Wunderground v.1.13,2013-03-03 17:37:00,
2013-03-03 12:42:00,31.4,24.4,29.68,NNW,340,3.0,3.0,75,0.00,,,0.02,Wunderground v.1.13,2013-03-03 17:42:00,
2013-03-03 12:47:00,31.6,24.6,29.67,NE,48,2.0,5.0,75,0.00,,,0.02,Wunderground v.1.13,2013-03-03 17:47:00,
2013-03-03 12:52:00,31.8,24.8,29.67,NE,54,4.0,4.0,75,0.00,,,0.02,Wunderground v.1.13,2013-03-03 17:52:00,
2013-03-03 12:57:00,31.8,24.8,29.67,East,95,4.0,6.0,75,0.00,,,0.02,Wunderground v.1.13,2013-03-03 17:57:00,
2013-03-03 13:03:00,31.9,24.9,29.67,NE,40,2.0,6.0,75,0.00,,,0.02,Wunderground v.1.13,2013-03-03 18:03:00,
2013-03-03 13:08:00,32.0,25.0,29.67,WNW,283,3.0,6.0,75,0.00,,,0.02,Wunderground v.1.13,2013-03-03 18:08:00,
2013-03-03 13:13:00,32.1,24.7,29.67,NNW,346,1.0,3.0,74,0.00,,,0.02,Wunderground v.1.13,2013-03-03 18:13:00,
2013-03-03 13:18:00,32.2,24.8,29.66,NE,51,2.0,5.0,74,0.00,,,0.02,Wunderground v.1.13,2013-03-03 18:18:00,
2013-03-03 13:23:00,32.4,25.0,29.66,WNW,300,4.0,4.0,74,0.00,,,0.02,Wunderground v.1.13,2013-03-03 18:23:00,
2013-03-03 13:28:00,32.7,25.3,29.66,ESE,102,1.0,3.0,74,0.00,,,0.02,Wunderground v.1.13,2013-03-03 18:28:00,
2013-03-03 13:33:00,32.9,25.2,29.66,NNE,15,2.0,4.0,73,0.00,,,0.02,Wunderground v.1.13,2013-03-03 18:33:00,
2013-03-03 13:38:00,33.0,25.3,29.66,WNW,290,2.0,5.0,73,0.00,,,0.02,Wunderground v.1.13,2013-03-03 18:38:00,
2013-03-03 13:43:00,33.0,25.3,29.66,ENE,66,2.0,4.0,73,0.00,,,0.02,Wunderground v.1.13,2013-03-03 18:43:00,
2013-03-03 13:48:00,33.3,25.6,29.66,NNE,30,3.0,6.0,73,0.00,,,0.02,Wunderground v.1.13,2013-03-03 18:48:00,
2013-03-03 13:53:00,33.3,25.6,29.66,North,350,2.0,7.0,73,0.00,,,0.02,Wunderground v.1.13,2013-03-03 18:53:00,
2013-03-03 13:59:00,33.3,25.6,29.66,NNE,13,0.0,7.0,73,0.00,,,0.02,Wunderground v.1.13,2013-03-03 18:59:00,
2013-03-03 14:04:00,33.5,25.8,29.66,NNE,25,5.0,5.0,73,0.00,,,0.02,Wunderground v.1.13,2013-03-03 19:04:00,
2013-03-03 14:09:00,33.6,25.9,29.66,NE,37,0.0,3.0,73,0.00,,,0.02,Wunderground v.1.13,2013-03-03 19:09:00,
2013-03-03 14:14:00,33.8,26.1,29.66,NW,324,2.0,7.0,73,0.00,,,0.02,Wunderground v.1.13,2013-03-03 19:14:00,
2013-03-03 14:19:00,33.8,25.7,29.66,North,355,4.0,5.0,72,0.00,,,0.02,Wunderground v.1.13,2013-03-03 19:19:00,
2013-03-03 14:24:00,33.7,25.6,29.66,ESE,116,1.0,7.0,72,0.00,,,0.02,Wunderground v.1.13,2013-03-03 19:24:00,
2013-03-03 14:29:00,33.9,25.8,29.66,NE,55,3.0,6.0,72,0.00,,,0.02,Wunderground v.1.13,2013-03-03 19:29:00,
2013-03-03 14:34:00,33.8,25.7,29.66,ENE,60,3.0,5.0,72,0.00,,,0.02,Wunderground v.1.13,2013-03-03 19:34:00,
2013-03-03 14:39:00,33.8,25.4,29.66,WSW,254,2.0,5.0,71,0.00,,,0.02,Wunderground v.1.13,2013-03-03 19:39:00,
2013-03-03 14:44:00,33.9,25.8,29.66,NNW,336,2.0,6.0,72,0.00,,,0.02,Wunderground v.1.13,2013-03-03 19:44:00,
2013-03-03 14:49:00,34.1,26.0,29.66,NE,44,0.0,5.0,72,0.00,,,0.02,Wunderground v.1.13,2013-03-03 19:49:00,
2013-03-03 14:54:00,34.2,25.8,29.66,ENE,61,3.0,4.0,71,0.00,,,0.02,Wunderground v.1.13,2013-03-03 19:54:00,
2013-03-03 14:59:00,33.9,25.5,29.65,North,360,1.0,7.0,71,0.00,,,0.02,Wunderground v.1.13,2013-03-03 19:59:00,
2013-03-03 15:04:00,34.0,25.9,29.66,East,99,0.0,4.0,72,0.00,,,0.02,Wunderground v.1.13,2013-03-03 20:04:00,
2013-03-03 15:09:00,34.0,25.9,29.66,ENE,61,2.0,11.0,72,0.00,,,0.02,Wunderground v.1.13,2013-03-03 20:09:00,
2013-03-03 15:14:00,33.9,25.8,29.66,ENE,78,0.0,5.0,72,0.00,,,0.02,Wunderground v.1.13,2013-03-03 20:14:00,
2013-03-03 15:19:00,33.9,25.5,29.66,NNW,334,3.0,6.0,71,0.00,,,0.02,Wunderground v.1.13,2013-03-03 20:19:00,
2013-03-03 15:25:00,33.8,25.4,29.66,East,84,3.0,3.0,71,0.00,,,0.02,Wunderground v.1.13,2013-03-03 20:25:00,
2013-03-03 15:30:00,33.7,25.3,29.66,NNE,17,4.0,4.0,71,0.00,,,0.02,Wunderground v.1.13,2013-03-03 20:30:00,
2013-03-03 15:35:00,33.5,25.1,29.66,North,355,2.0,3.0,71,0.00,,,0.02,Wunderground v.1.13,2013-03-03 20:35:00,
2013-03-03 15:40:00,33.4,25.0,29.66,NNW,342,1.0,3.0,71,0.00,,,0.02,Wunderground v.1.13,2013-03-03 20:40:00,
2013-03-03 15:45:00,33.2,25.1,29.66,NNE,22,4.0,4.0,72,0.00,,,0.02,Wunderground v.1.13,2013-03-03 20:45:00,
2013-03-03 15:50:00,33.0,25.0,29.66,ENE,63,1.0,3.0,72,0.00,,,0.02,Wunderground v.1.13,2013-03-03 20:50:00,
2013-03-03 15:55:00,33.0,25.3,29.66,NE,47,0.0,3.0,73,0.00,,,0.02,Wunderground v.1.13,2013-03-03 20:55:00,
2013-03-03 16:00:00,33.0,25.3,29.66,WNW,302,0.0,1.0,73,0.00,,,0.02,Wunderground v.1.13,2013-03-03 21:00:00,
2013-03-03 16:05:00,32.9,25.2,29.66,North,10,3.0,5.0,73,0.00,,,0.02,Wunderground v.1.13,2013-03-03 21:05:00,
2013-03-03 16:10:00,32.8,25.1,29.66,WNW,300,3.0,4.0,73,0.00,,,0.02,Wunderground v.1.13,2013-03-03 21:10:00,
2013-03-03 16:15:00,32.6,24.9,29.66,NW,323,0.0,3.0,73,0.00,,,0.02,Wunderground v.1.13,2013-03-03 21:15:00,
2013-03-03 16:20:00,32.4,24.7,29.66,NW,325,2.0,3.0,73,0.00,,,0.02,Wunderground v.1.13,2013-03-03 21:20:00,
2013-03-03 16:25:00,32.3,24.9,29.66,North,355,1.0,3.0,74,0.00,,,0.02,Wunderground v.1.13,2013-03-03 21:25:00,
2013-03-03 16:30:00,32.1,24.7,29.66,North,355,4.0,4.0,74,0.00,,,0.02,Wunderground v.1.13,2013-03-03 21:30:00,
2013-03-03 16:35:00,32.0,24.6,29.67,ENE,69,4.0,6.0,74,0.00,,,0.02,Wunderground v.1.13,2013-03-03 21:35:00,
2013-03-03 16:40:00,31.9,24.6,29.67,NW,305,1.0,3.0,74,0.00,,,0.02,Wunderground v.1.13,2013-03-03 21:40:00,
2013-03-03 16:45:00,31.8,24.5,29.67,ENE,59,1.0,2.0,74,0.00,,,0.02,Wunderground v.1.13,2013-03-03 21:45:00,
2013-03-03 16:50:00,31.7,24.7,29.67,NNW,330,3.0,3.0,75,0.00,,,0.02,Wunderground v.1.13,2013-03-03 21:50:00,
2013-03-03 16:55:00,31.6,24.6,29.67,WNW,303,2.0,3.0,75,0.00,,,0.02,Wunderground v.1.13,2013-03-03 21:55:00,
2013-03-03 17:00:00,31.5,24.5,29.67,NNE,26,3.0,3.0,75,0.00,,,0.02,Wunderground v.1.13,2013-03-03 22:00:00,
2013-03-03 17:05:00,31.3,24.6,29.67,SSE,168,3.0,5.0,76,0.00,,,0.02,Wunderground v.1.13,2013-03-03 22:05:00,
2013-03-03 17:10:00,31.2,24.8,29.67,NNW,327,0.0,3.0,77,0.00,,,0.02,Wunderground v.1.13,2013-03-03 22:10:00,
2013-03-03 17:15:00,31.1,24.4,29.67,NNE,13,2.0,2.0,76,0.00,,,0.02,Wunderground v.1.13,2013-03-03 22:15:00,
2013-03-03 17:20:00,31.0,24.6,29.67,ENE,62,0.0,2.0,77,0.00,,,0.02,Wunderground v.1.13,2013-03-03 22:20:00,
2013-03-03 17:25:00,30.9,24.5,29.68,NE,38,0.0,3.0,77,0.00,,,0.02,Wunderground v.1.13,2013-03-03 22:25:00,
2013-03-03 17:31:00,30.9,24.5,29.68,ENE,78,3.0,5.0,77,0.00,,,0.02,Wunderground v.1.13,2013-03-03 22:31:00,
2013-03-03 17:36:00,30.8,24.4,29.68,NNW,338,2.0,4.0,77,0.00,,,0.02,Wunderground v.1.13,2013-03-03 22:36:00,
2013-03-03 17:41:00,30.7,24.3,29.68,WNW,294,0.0,5.0,77,0.00,,,0.02,Wunderground v.1.13,2013-03-03 22:41:00,
2013-03-03 17:46:00,30.6,24.2,29.68,WNW,294,3.0,3.0,77,0.00,,,0.02,Wunderground v.1.13,2013-03-03 22:46:00,
2013-03-03 17:51:00,30.6,24.2,29.68,ESE,109,0.0,5.0,77,0.00,,,0.02,Wunderground v.1.13,2013-03-03 22:51:00,
2013-03-03 17:56:00,30.6,24.2,29.68,WNW,288,2.0,5.0,77,0.00,,,0.02,Wunderground v.1.13,2013-03-03 22:56:00,
2013-03-03 18:01:00,30.6,24.2,29.68,East,98,2.0,4.0,77,0.00,,,0.02,Wunderground v.1.13,2013-03-03 23:01:00,
2013-03-03 18:06:00,30.6,24.2,29.68,ENE,60,3.0,4.0,77,0.00,,,0.02,Wunderground v.1.13,2013-03-03 23:06:00,
2013-03-03 18:11:00,30.6,24.2,29.68,North,360,0.0,3.0,77,0.00,,,0.02,Wunderground v.1.13,2013-03-03 23:11:00,
2013-03-03 18:16:00,30.6,24.2,29.68,NE,43,0.0,3.0,77,0.00,,,0.02,Wunderground v.1.13,2013-03-03 23:16:00,
2013-03-03 18:21:00,30.5,24.1,29.69,East,81,1.0,5.0,77,0.00,,,0.02,Wunderground v.1.13,2013-03-03 23:21:00,
2013-03-03 18:26:00,30.5,24.1,29.69,North,360,0.0,7.0,77,0.00,,,0.02,Wunderground v.1.13,2013-03-03 23:26:00,
2013-03-03 18:31:00,30.5,24.1,29.69,North,5,1.0,2.0,77,0.00,,,0.02,Wunderground v.1.13,2013-03-03 23:31:00,
2013-03-03 18:36:00,30.5,23.8,29.69,NNE,24,0.0,2.0,76,0.00,,,0.02,Wunderground v.1.13,2013-03-03 23:36:00,
2013-03-03 18:41:00,30.4,24.1,29.69,North,355,3.0,5.0,77,0.00,,,0.02,Wunderground v.1.13,2013-03-03 23:41:00,
2013-03-03 18:47:00,30.4,23.7,29.69,North,11,2.0,2.0,76,0.00,,,0.02,Wunderground v.1.13,2013-03-03 23:47:00,
2013-03-03 18:52:00,30.3,23.6,29.69,ENE,61,2.0,3.0,76,0.00,,,0.02,Wunderground v.1.13,2013-03-03 23:52:00,
2013-03-03 18:57:00,30.3,23.6,29.69,NE,51,0.0,4.0,76,0.00,,,0.02,Wunderground v.1.13,2013-03-03 23:57:00,
2013-03-03 19:02:00,30.2,23.5,29.69,North,360,1.0,3.0,76,0.00,,,0.02,Wunderground v.1.13,2013-03-04 00:02:00,
2013-03-03 19:08:00,30.2,23.5,29.69,NW,315,1.0,3.0,76,0.00,,,0.02,Wunderground v.1.13,2013-03-04 00:08:00,
2013-03-03 19:13:00,30.1,23.4,29.69,North,5,3.0,5.0,76,0.00,,,0.02,Wunderground v.1.13,2013-03-04 00:13:00,
2013-03-03 19:18:00,30.1,23.4,29.69,NNW,329,0.0,6.0,76,0.00,,,0.02,Wunderground v.1.13,2013-03-04 00:18:00,
2013-03-03 19:23:00,30.0,23.4,29.69,NNW,327,4.0,10.0,76,0.00,,,0.02,Wunderground v.1.13,2013-03-04 00:23:00,
2013-03-03 19:28:00,30.0,23.4,29.69,ENE,59,4.0,5.0,76,0.00,,,0.02,Wunderground v.1.13,2013-03-04 00:28:00,
2013-03-03 19:33:00,29.9,23.3,29.69,North,355,3.0,7.0,76,0.00,,,0.02,Wunderground v.1.13,2013-03-04 00:33:00,
2013-03-03 19:38:00,29.8,23.2,29.68,NNW,348,2.0,4.0,76,0.00,,,0.02,Wunderground v.1.13,2013-03-04 00:38:00,
2013-03-03 19:43:00,29.8,23.2,29.69,North,349,3.0,9.0,76,0.00,,,0.02,Wunderground v.1.13,2013-03-04 00:43:00,
2013-03-03 19:48:00,29.7,23.1,29.69,ENE,57,1.0,8.0,76,0.00,,,0.02,Wunderground v.1.13,2013-03-04 00:48:00,
2013-03-03 19:53:00,29.7,23.1,29.69,North,5,0.0,3.0,76,0.00,,,0.02,Wunderground v.1.13,2013-03-04 00:53:00,
2013-03-03 19:58:00,29.7,23.1,29.69,East,86,2.0,8.0,76,0.00,,,0.02,Wunderground v.1.13,2013-03-04 00:58:00,
2013-03-03 20:04:00,29.6,23.3,29.69,NNW,335,4.0,10.0,77,0.00,,,0.02,Wunderground v.1.13,2013-03-04 01:04:00,
2013-03-03 20:09:00,29.6,23.3,29.69,NE,46,1.0,6.0,77,0.00,,,0.02,Wunderground v.1.13,2013-03-04 01:09:00,
2013-03-03 20:14:00,29.5,23.2,29.69,NE,45,3.0,10.0,77,0.00,,,0.02,Wunderground v.1.13,2013-03-04 01:14:00,
2013-03-03 20:20:00,29.5,23.2,29.69,North,349,1.0,2.0,77,0.00,,,0.02,Wunderground v.1.13,2013-03-04 01:20:00,
2013-03-03 20:25:00,29.4,23.1,29.69,ENE,58,1.0,2.0,77,0.00,,,0.02,Wunderground v.1.13,2013-03-04 01:25:00,
2013-03-03 20:30:00,29.4,23.1,29.69,NNW,332,2.0,3.0,77,0.00,,,0.02,Wunderground v.1.13,2013-03-04 01:30:00,
2013-03-03 20:35:00,29.3,23.0,29.69,NE,35,2.0,3.0,77,0.00,,,0.02,Wunderground v.1.13,2013-03-04 01:35:00,
2013-03-03 20:40:00,29.2,23.2,29.69,North,9,2.0,3.0,78,0.00,,,0.02,Wunderground v.1.13,2013-03-04 01:40:00,
2013-03-03 20:46:00,29.1,23.1,29.69,NNW,334,3.0,3.0,78,0.00,,,0.02,Wunderground v.1.13,2013-03-04 01:46:00,
2013-03-03 20:51:00,29.1,23.1,29.69,NE,44,1.0,3.0,78,0.00,,,0.02,Wunderground v.1.13,2013-03-04 01:51:00,
2013-03-03 20:56:00,29.1,23.1,29.69,NE,40,2.0,4.0,78,0.00,,,0.02,Wunderground v.1.13,2013-03-04 01:56:00,
2013-03-03 21:01:00,29.1,23.1,29.69,NNW,346,4.0,4.0,78,0.00,,,0.02,Wunderground v.1.13,2013-03-04 02:01:00,
2013-03-03 21:06:00,29.1,23.1,29.69,NNW,342,2.0,3.0,78,0.00,,,0.02,Wunderground v.1.13,2013-03-04 02:06:00,
2013-03-03 21:11:00,29.0,23.0,29.69,NNE,14,2.0,6.0,78,0.00,,,0.02,Wunderground v.1.13,2013-03-04 02:11:00,
2013-03-03 21:16:00,29.0,23.0,29.69,NE,47,0.0,3.0,78,0.00,,,0.02,Wunderground v.1.13,2013-03-04 02:16:00,
2013-03-03 21:21:00,28.9,22.9,29.69,NNE,21,1.0,11.0,78,0.00,,,0.02,Wunderground v.1.13,2013-03-04 02:21:00,
2013-03-03 21:26:00,28.8,22.8,29.69,NE,35,1.0,4.0,78,0.00,,,0.02,Wunderground v.1.13,2013-03-04 02:26:00,
2013-03-03 21:31:00,28.8,22.8,29.69,ENE,71,0.0,7.0,78,0.00,,,0.02,Wunderground v.1.13,2013-03-04 02:31:00,
2013-03-03 21:36:00,28.7,22.7,29.69,ENE,66,4.0,4.0,78,0.00,,,0.02,Wunderground v.1.13,2013-03-04 02:36:00,
2013-03-03 21:42:00,28.7,22.7,29.69,North,350,4.0,8.0,78,0.00,,,0.02,Wunderground v.1.13,2013-03-04 02:42:00,
2013-03-03 21:47:00,28.6,22.6,29.69,North,5,1.0,4.0,78,0.00,,,0.02,Wunderground v.1.13,2013-03-04 02:47:00,
2013-03-03 21:52:00,28.6,22.6,29.70,North,10,1.0,3.0,78,0.00,,,0.02,Wunderground v.1.13,2013-03-04 02:52:00,
2013-03-03 21:57:00,28.5,22.5,29.69,NW,319,1.0,4.0,78,0.00,,,0.02,Wunderground v.1.13,2013-03-04 02:57:00,
2013-03-03 22:02:00,28.5,22.5,29.69,North,350,1.0,3.0,78,0.00,,,0.02,Wunderground v.1.13,2013-03-04 03:02:00,
2013-03-03 22:07:00,28.4,22.4,29.69,NE,38,0.0,6.0,78,0.00,,,0.02,Wunderground v.1.13,2013-03-04 03:07:00,
2013-03-03 22:12:00,28.4,22.4,29.69,North,360,0.0,5.0,78,0.00,,,0.02,Wunderground v.1.13,2013-03-04 03:12:00,
2013-03-03 22:18:00,28.3,22.3,29.69,NW,325,0.0,5.0,78,0.00,,,0.02,Wunderground v.1.13,2013-03-04 03:18:00,
2013-03-03 22:22:00,28.3,22.3,29.69,NNE,17,0.0,7.0,78,0.00,,,0.02,Wunderground v.1.13,2013-03-04 03:22:00,
2013-03-03 22:28:00,28.2,22.2,29.69,NNE,33,2.0,5.0,78,0.00,,,0.02,Wunderground v.1.13,2013-03-04 03:28:00,
2013-03-03 22:33:00,28.2,22.2,29.69,ENE,59,0.0,2.0,78,0.00,,,0.02,Wunderground v.1.13,2013-03-04 03:33:00,
2013-03-03 22:38:00,28.1,22.1,29.69,NW,318,8.0,10.0,78,0.00,,,0.02,Wunderground v.1.13,2013-03-04 03:38:00,
2013-03-03 22:43:00,28.1,22.1,29.69,North,9,1.0,3.0,78,0.00,,,0.02,Wunderground v.1.13,2013-03-04 03:43:00,
2013-03-03 22:48:00,28.1,22.1,29.69,North,355,0.0,9.0,78,0.00,,,0.02,Wunderground v.1.13,2013-03-04 03:48:00,
2013-03-03 22:53:00,28.1,22.1,29.69,NW,322,0.0,5.0,78,0.00,,,0.02,Wunderground v.1.13,2013-03-04 03:53:00,
2013-03-03 22:58:00,28.1,22.1,29.69,ESE,103,2.0,6.0,78,0.00,,,0.02,Wunderground v.1.13,2013-03-04 03:58:00,
2013-03-03 23:03:00,28.0,22.0,29.69,NNW,345,0.0,4.0,78,0.00,,,0.02,Wunderground v.1.13,2013-03-04 04:03:00,
2013-03-03 23:08:00,27.9,22.2,29.69,NNW,344,1.0,5.0,79,0.00,,,0.02,Wunderground v.1.13,2013-03-04 04:08:00,
2013-03-03 23:13:00,27.9,22.2,29.69,WNW,291,0.0,5.0,79,0.00,,,0.02,Wunderground v.1.13,2013-03-04 04:13:00,
2013-03-03 23:18:00,27.8,21.8,29.69,NE,34,3.0,4.0,78,0.00,,,0.02,Wunderground v.1.13,2013-03-04 04:18:00,
2013-03-03 23:23:00,27.7,22.0,29.69,North,355,0.0,3.0,79,0.00,,,0.02,Wunderground v.1.13,2013-03-04 04:23:00,
2013-03-03 23:28:00,27.6,21.6,29.69,NE,44,2.0,3.0,78,0.00,,,0.02,Wunderground v.1.13,2013-03-04 04:28:00,
2013-03-03 23:33:00,27.5,21.5,29.68,NE,44,3.0,6.0,78,0.00,,,0.02,Wunderground v.1.13,2013-03-04 04:33:00,
2013-03-03 23:38:00,27.4,21.4,29.69,SE,126,0.0,3.0,78,0.00,,,0.02,Wunderground v.1.13,2013-03-04 04:38:00,
2013-03-03 23:43:00,27.3,21.6,29.69,ENE,77,0.0,1.0,79,0.00,,,0.02,Wunderground v.1.13,2013-03-04 04:43:00,
2013-03-03 23:48:00,27.3,21.6,29.69,NW,323,1.0,3.0,79,0.00,,,0.02,Wunderground v.1.13,2013-03-04 04:48:00,
2013-03-03 23:54:00,27.3,21.6,29.69,ENE,60,2.0,2.0,79,0.00,,,0.02,Wunderground v.1.13,2013-03-04 04:54:00,
2013-03-03 23:59:00,27.3,21.3,29.69,NNE,33,1.0,4.0,78,0.00,,,0.02,Wunderground v.1.13,2013-03-04 04:59:00,